timestamp,surface_pressure_avg,surface_temp_avg,battery_voltage,lat,long
2018-04-11 00:00:00+00:00,255.898,1.7,12.65,47.84626,-54.09684
2018-04-11 00:10:00+00:00,256.0081,1.7,12.65,47.84626,-54.09684
2018-04-11 00:20:00+00:00,254.9314,1.7,12.65,47.84626,-54.09684
2018-04-11 00:30:00+00:00,249.1048,1.7,12.65,47.84626,-54.09684
2018-04-11 00:40:00+00:00,245.7081,1.66,12.65,47.84626,-54.09684
2018-04-11 00:50:00+00:00,246.5315,1.63,12.65,47.84626,-54.09684
2018-04-11 01:00:00+00:00,244.4381,1.6,12.65,47.84626,-54.09684
2018-04-11 01:10:00+00:00,241.7564,1.6,12.57,47.84626,-54.09684
2018-04-11 01:20:00+00:00,245.3914,1.55,12.65,47.84626,-54.09684
2018-04-11 01:30:00+00:00,245.2847,1.58,12.65,47.84626,-54.09684
2018-04-11 01:40:00+00:00,236.6431,1.53,12.65,47.84626,-54.09684
2018-04-11 01:50:00+00:00,234.2564,1.68,12.65,47.84626,-54.09684
2018-04-11 02:00:00+00:00,241.3148,1.69,12.57,47.84626,-54.09684
2018-04-11 02:10:00+00:00,241.6081,1.63,12.57,47.84626,-54.09684
2018-04-11 02:20:00+00:00,235.2198,1.6,12.65,47.84626,-54.09684
2018-04-11 02:30:00+00:00,235.7397,1.6,12.65,47.84626,-54.09684
2018-04-11 02:40:00+00:00,237.7998,1.68,12.65,47.84626,-54.09684
2018-04-11 02:50:00+00:00,235.4648,1.7,12.65,47.84626,-54.09684
2018-04-11 03:00:00+00:00,234.9748,1.7,12.57,47.84626,-54.09684
2018-04-11 03:10:00+00:00,237.6364,1.7,12.57,47.84626,-54.09684
2018-04-11 03:20:00+00:00,238.1147,1.7,12.65,47.84626,-54.09684
2018-04-11 03:30:00+00:00,239.9464,1.68,12.65,47.84626,-54.09684
2018-04-11 03:40:00+00:00,245.0581,1.68,12.65,47.84626,-54.09684
2018-04-11 03:50:00+00:00,246.6798,1.7,12.65,47.84626,-54.09684
2018-04-11 04:00:00+00:00,246.3248,1.7,12.57,47.84626,-54.09684
2018-04-11 04:10:00+00:00,249.1747,1.7,12.57,47.84626,-54.09684
2018-04-11 04:20:00+00:00,251.7331,1.7,12.57,47.84626,-54.09684
2018-04-11 04:30:00+00:00,256.5064,1.7,12.57,47.84626,-54.09684
2018-04-11 04:40:00+00:00,258.7614,1.7,12.57,47.84626,-54.09684
2018-04-11 04:50:00+00:00,261.7664,1.69,12.65,47.84626,-54.09684
2018-04-11 05:00:00+00:00,264.3847,1.69,12.57,47.84626,-54.09684
2018-04-11 05:10:00+00:00,271.4714,1.7,12.57,47.84626,-54.09684
2018-04-11 05:20:00+00:00,272.9147,1.74,12.57,47.84626,-54.09684
2018-04-11 05:30:00+00:00,275.8981,1.76,12.57,47.84626,-54.09684
2018-04-11 05:40:00+00:00,283.0264,1.75,12.57,47.84626,-54.09684
2018-04-11 05:50:00+00:00,291.323,1.75,12.57,47.84626,-54.09684
2018-04-11 06:00:00+00:00,292.033,1.75,12.57,47.84626,-54.09684
2018-04-11 06:10:00+00:00,293.2847,1.72,12.49,47.84626,-54.09684
2018-04-11 06:20:00+00:00,296.5363,1.7,12.57,47.84626,-54.09684
2018-04-11 06:30:00+00:00,300.7814,1.72,12.57,47.84626,-54.09684
2018-04-11 06:40:00+00:00,298.7247,1.74,12.57,47.84626,-54.09684
2018-04-11 06:50:00+00:00,299.1147,1.7,12.57,47.84626,-54.09684
2018-04-11 07:00:00+00:00,303.283,1.7,12.49,47.84626,-54.09684
2018-04-11 07:10:00+00:00,309.133,1.7,12.49,47.84626,-54.09684
2018-04-11 07:20:00+00:00,310.8981,1.7,12.57,47.84626,-54.09684
2018-04-11 07:30:00+00:00,313.4481,1.7,12.57,47.84626,-54.09684
2018-04-11 07:40:00+00:00,320.0997,1.7,12.57,47.84626,-54.09684
2018-04-11 07:50:00+00:00,323.7914,1.7,12.57,47.84626,-54.09684
2018-04-11 08:00:00+00:00,324.5296,1.7,12.49,47.84626,-54.09684
2018-04-11 08:10:00+00:00,320.1313,1.72,12.49,47.84626,-54.09684
2018-04-11 08:20:00+00:00,319.9797,1.72,12.57,47.84626,-54.09684
2018-04-11 08:30:00+00:00,322.8181,1.74,12.57,47.84626,-54.09684
2018-04-11 08:40:00+00:00,319.2546,1.73,12.57,47.84626,-54.09684
2018-04-11 08:50:00+00:00,313.3514,1.72,12.57,47.84626,-54.09684
2018-04-11 09:00:00+00:00,310.7647,1.75,12.49,47.84626,-54.09684
2018-04-11 09:10:00+00:00,314.8096,1.7,12.49,47.84626,-54.09684
2018-04-11 09:20:00+00:00,315.1246,1.7,12.57,47.84626,-54.09684
2018-04-11 09:30:00+00:00,310.238,1.7,12.57,47.84626,-54.09684
2018-04-11 09:40:00+00:00,309.543,1.7,12.57,47.84626,-54.09684
2018-04-11 09:50:00+00:00,303.983,1.74,12.57,47.84626,-54.09684
2018-04-11 10:00:00+00:00,301.6947,1.73,12.57,47.84626,-54.09684
2018-04-11 10:10:00+00:00,295.5781,1.74,12.57,47.84626,-54.09684
2018-04-11 10:20:00+00:00,287.9997,1.7,12.65,47.84626,-54.09684
2018-04-11 10:30:00+00:00,280.7814,1.71,12.65,47.84626,-54.09684
2018-04-11 10:40:00+00:00,279.5931,1.75,12.73,47.84626,-54.09684
2018-04-11 10:50:00+00:00,281.4897,1.78,12.73,47.84626,-54.09684
2018-04-11 11:00:00+00:00,272.3864,1.79,12.65,47.84626,-54.09684
2018-04-11 11:10:00+00:00,258.7114,1.78,12.65,47.84626,-54.09684
2018-04-11 11:20:00+00:00,258.8698,1.79,12.89,47.84626,-54.09684
2018-04-11 11:30:00+00:00,258.9531,1.79,12.97,47.84626,-54.09684
2018-04-11 11:40:00+00:00,248.8698,1.72,12.81,47.84626,-54.09684
2018-04-11 11:50:00+00:00,240.9014,1.72,12.81,47.84626,-54.09684
2018-04-11 12:00:00+00:00,248.3047,1.72,12.81,47.84626,-54.09684
2018-04-11 12:10:00+00:00,250.4881,1.72,12.73,47.84626,-54.09684
2018-04-11 12:20:00+00:00,244.5581,1.7,12.97,47.84626,-54.09684
2018-04-11 12:30:00+00:00,237.063,1.7,13.13,47.84626,-54.09684
2018-04-11 12:40:00+00:00,238.8764,1.76,13.21,47.84626,-54.09684
2018-04-11 12:50:00+00:00,236.6097,1.7,13.21,47.84626,-54.09684
2018-04-11 13:00:00+00:00,226.9814,1.7,13.05,47.84626,-54.09684
2018-04-11 13:10:00+00:00,220.7314,1.7,12.97,47.84626,-54.09684
2018-04-11 13:20:00+00:00,219.6981,1.7,12.97,47.84626,-54.09684
2018-04-11 13:30:00+00:00,218.1381,1.7,13.21,47.84626,-54.09684
2018-04-11 13:40:00+00:00,215.3981,1.7,13.29,47.84626,-54.09684
2018-04-11 13:50:00+00:00,212.8498,1.72,13.21,47.84626,-54.09684
2018-04-11 14:00:00+00:00,213.5998,1.79,13.05,47.84626,-54.09684
2018-04-11 14:10:00+00:00,216.8748,1.8,12.97,47.84626,-54.09684
2018-04-11 14:20:00+00:00,216.6531,1.9,13.05,47.84626,-54.09684
2018-04-11 14:30:00+00:00,212.1331,1.99,12.97,47.84626,-54.09684
2018-04-11 14:40:00+00:00,208.8914,2.0,13.05,47.84626,-54.09684
2018-04-11 14:50:00+00:00,209.0848,1.96,13.13,47.84626,-54.09684
2018-04-11 15:00:00+00:00,208.5564,1.99,13.05,47.84626,-54.09684
2018-04-11 15:10:00+00:00,209.2864,2.0,13.05,47.84626,-54.09684
2018-04-11 15:20:00+00:00,209.4781,1.9,13.21,47.84626,-54.09684
2018-04-11 15:30:00+00:00,210.6564,1.87,13.05,47.84626,-54.09684
2018-04-11 15:40:00+00:00,211.7281,1.9,13.05,47.84626,-54.09684
2018-04-11 15:50:00+00:00,213.0448,1.9,13.05,47.84626,-54.09684
2018-04-11 16:00:00+00:00,213.3864,1.98,13.13,47.84626,-54.09684
2018-04-11 16:10:00+00:00,216.0731,1.91,13.13,47.84626,-54.09684
2018-04-11 16:20:00+00:00,220.5414,1.9,13.29,47.84626,-54.09684
2018-04-11 16:30:00+00:00,226.1897,1.9,13.05,47.84626,-54.09684
2018-04-11 16:40:00+00:00,229.8548,1.9,13.13,47.84626,-54.09684
2018-04-11 16:50:00+00:00,229.6648,1.9,13.05,47.84626,-54.09684
2018-04-11 17:00:00+00:00,235.2797,1.9,13.05,47.84626,-54.09684
2018-04-11 17:10:00+00:00,244.0381,1.9,13.13,47.84626,-54.09684
2018-04-11 17:20:00+00:00,245.8198,1.97,13.21,47.84626,-54.09684
2018-04-11 17:30:00+00:00,246.4848,2.0,12.97,47.84626,-54.09684
2018-04-11 17:40:00+00:00,253.3597,2.12,13.21,47.84626,-54.09684
2018-04-11 17:50:00+00:00,259.0764,2.2,13.13,47.84626,-54.09684
2018-04-11 18:00:00+00:00,256.5297,2.2,13.05,47.84626,-54.09684
2018-04-11 18:10:00+00:00,254.9964,2.2,12.97,47.84626,-54.09684
2018-04-11 18:20:00+00:00,263.9297,2.2,13.05,47.84626,-54.09684
2018-04-11 18:30:00+00:00,267.3697,2.2,13.05,47.84626,-54.09684
2018-04-11 18:40:00+00:00,266.0947,2.2,13.05,47.84626,-54.09684
2018-04-11 18:50:00+00:00,270.3364,2.27,12.97,47.84626,-54.09684
2018-04-11 19:00:00+00:00,278.558,2.29,12.97,47.84626,-54.09684
2018-04-11 19:10:00+00:00,282.3747,2.28,12.97,47.84626,-54.09684
2018-04-11 19:20:00+00:00,281.2581,2.27,12.97,47.84626,-54.09684
2018-04-11 19:30:00+00:00,284.913,2.24,12.97,47.84626,-54.09684
2018-04-11 19:40:00+00:00,291.713,2.27,12.97,47.84626,-54.09684
2018-04-11 19:50:00+00:00,293.5696,2.27,12.97,47.84626,-54.09684
2018-04-11 20:00:00+00:00,296.2714,2.21,12.89,47.84626,-54.09684
2018-04-11 20:10:00+00:00,300.598,2.2,12.89,47.84626,-54.09684
2018-04-11 20:20:00+00:00,301.1597,2.37,12.89,47.84626,-54.09684
2018-04-11 20:30:00+00:00,300.0681,2.4,12.89,47.84626,-54.09684
2018-04-11 20:40:00+00:00,305.3131,2.3,12.89,47.84626,-54.09684
2018-04-11 20:50:00+00:00,311.7297,2.39,12.89,47.84626,-54.09684
2018-04-11 21:00:00+00:00,307.6897,2.47,12.81,47.84626,-54.09684
2018-04-11 21:10:00+00:00,302.5264,2.38,12.81,47.84626,-54.09684
2018-04-11 21:20:00+00:00,306.8847,2.4,12.89,47.84626,-54.09684
2018-04-11 21:30:00+00:00,305.458,2.49,12.81,47.84626,-54.09684
2018-04-11 21:40:00+00:00,295.7514,2.5,12.81,47.84626,-54.09684
2018-04-11 21:50:00+00:00,295.6246,2.5,12.81,47.84626,-54.09684
2018-04-11 22:00:00+00:00,299.3547,2.5,12.81,47.84626,-54.09684
2018-04-11 22:10:00+00:00,294.4064,2.51,12.81,47.84626,-54.09684
2018-04-11 22:20:00+00:00,287.2047,2.56,12.81,47.84626,-54.09684
2018-04-11 22:30:00+00:00,293.598,2.6,12.81,47.84626,-54.09684
2018-04-11 22:40:00+00:00,293.7664,2.6,12.81,47.84626,-54.09684
2018-04-11 22:50:00+00:00,285.1931,2.6,12.81,47.84626,-54.09684
2018-04-11 23:00:00+00:00,275.6747,2.6,12.73,47.84626,-54.09684
2018-04-11 23:10:00+00:00,273.4547,2.6,12.73,47.84626,-54.09684
2018-04-11 23:20:00+00:00,270.2681,2.6,12.81,47.84626,-54.09684
2018-04-11 23:30:00+00:00,260.593,2.5,12.81,47.84626,-54.09684
2018-04-11 23:40:00+00:00,255.3681,2.57,12.81,47.84626,-54.09684
2018-04-11 23:50:00+00:00,255.2464,2.6,12.81,47.84626,-54.09684
